Weather in Nouadhibou

Mauritania     20°57′21″N   17°01′45″W
temp.,
°C
wind,
m/s
gust,
m/s
humid.,
%
clouds,
%
prec.,
mm/h
press.,
hPa
HPBL,
m
27 november, sat
sat2700:00+21n7108656 0.0 1014182
03:00+20n7108838 0.0 1014225
06:00+20nne91287100 0.0 1014393
09:00+20nne81380100 0.0 1016375
12:00+21nne8117030 0.0 1016208
15:00+22n7968100 0.0 1014100
18:00+22n9126492 0.0 1015162
21:00+20nne1115664 0.0 1017328
28 november, sun
sun2800:00+20nne1015600 0.0 1018445
03:00+19nne1014670 0.0 1017593
06:00+18ne1114610 0.0 1017593
09:00+18ne1115602 0.0 1019611
12:00+20ne1012524 0.0 1020752
15:00+22ne810485 0.0 1017133
18:00+22nne7114925 0.0 1017111
21:00+21nne9136291 0.0 1019264
29 november, mon
mon2900:00+20nne9165899 0.0 1019461
03:00+19nne91468100 0.0 1018648
06:00+19ne10146292 0.0 1018662
09:00+18ne111461100 0.0 1020581
12:00+19ne9115786 0.0 1020747
15:00+21nne7949100 0.0 1016140
18:00+22nne81149100 0.0 1016151
21:00+19nne11146649 0.0 1018503
30 november, tue
tue3000:00+19nne91461100 0.0 1018555
03:00+18nne9136211 0.0 1017437
06:00+18nne912593 0.0 1017377
09:00+17ne9115316 0.0 1018338
12:00+20ne68471 0.0 1018234
15:00+22n55530 0.0 101449
18:00+22n78570 0.0 101596
21:00+20nne913600 0.0 1017228
1 december, wed
wed100:00+20nne813490 0.0 1016239
03:00+19ne814430 0.0 1015298
06:00+19ne813390 0.0 1015337
09:00+18ne912370 0.0 1017318
12:00+21ne794087 0.0 1017177
15:00+22n5751100 0.0 101456
18:00+21n81156100 0.0 1014123
21:00+20nne91458100 0.0 1017253